Regional Weather Roundup
Issued by NWS

Home | Current Version | Previous Version | Text Only | Print | Product List | Glossary Off
Versions: 1 2 3 4 5 6 7 8 9 10 11 12 13 14 15 16 17 18 19 20 21 22 23 24 25 26 27 28 29 30 31 32 33 34 35 36 37 38 39 40 41 42 43 44 45 46 47 48 49 50

000
ASUS43 KIND 280409
RWRIN

WEATHER ROUNDUP FOR INDIANA
NATIONAL WEATHER SERVICE INDIANAPOLIS IN
1200 AM EDT WED JUN 28 2017

NOTE: "FAIR" INDICATES FEW OR NO CLOUDS BELOW 12,000 FEET WITH NO
SIGNIFICANT WEATHER AND/OR OBSTRUCTIONS TO VISIBILITY.

* - STATION DOES NOT REPORT WEATHER SUCH AS PRECIPITATION OR FOG.

+ - STATION NOT QUALITY CONTROLLED BY THE NATIONAL WEATHER SERVICE.
    USE DATA WITH CAUTION...ESPECIALLY DEWPOINT AND RELATIVE
    HUMIDITY OBSERVATIONS.

INZ001>003-010>013-019-020-280500-
NORTHWEST INDIANA

CITY           SKY/WX    TMP DP  RH WIND       PRES   REMARKS
GARY /AIRPORT/ CLEAR     60  48  65 S3        30.06S
KNOX *+        PTCLDY    55  43  62 SE5       30.07F
LA PORTE +     CLOUDY    58  48  71 CALM      30.08S
MICHIGAN CITY+ PTCLDY    61  45  55 CALM      30.07S
MONTICELLO +   CLEAR     62  49  63 S5        30.08R
RENSSELAER +   PTCLDY    61  46  59 S5        30.08S
VALPARAISO     CLOUDY    61  51  70 CALM      30.07S

$$

LMZ046-743>745-280500-
SOUTHERN LAKE MICHIGAN

STATION/POSITION TIME  TEMP    WIND        PRES    WAVE
                       AIR SEA DIR/SP/G            HT
                 (UTC) (F)     (DEG/KT/KT) (MB)    (FT)
BURNS HARBOR     0401   66     190/  7/ 10 1017.9
MICHIGAN CITY    0340   65     140/  8/  9   N/A
5NW MICH CITY    0400   65 66  160/ 10/ 14   N/A     1

$$

INZ004-005-014>016-021>024-280500-
NORTH CENTRAL INDIANA

CITY           SKY/WX    TMP DP  RH WIND       PRES   REMARKS
GOSHEN         CLEAR     54  45  71 CALM      30.09R
LOGANSPORT +   CLEAR     55  52  88 S6        30.11R
PERU/GRISSOM   CLEAR     58  51  77 S6        30.09R
ROCHESTER +    CLEAR     59  52  77 CALM      30.10R
SOUTH BEND     CLEAR     58  47  66 CALM      30.08R
WARSAW +       CLEAR     52  46  82 CALM      30.09S

$$

INZ006>009-017-018-025>027-280500-
NORTHEAST INDIANA

CITY           SKY/WX    TMP DP  RH WIND       PRES   REMARKS
ANGOLA *+      CLEAR     54  43  66 CALM      30.09S
AUBURN +       CLEAR     55  46  71 CALM      30.10S
FORT WAYNE     PTCLDY    60  52  74 CALM      30.11R
HUNTINGTON +   CLEAR     56  53  89 CALM      30.11R
KENDALLVILLE + CLEAR     56  50  80 CALM      30.10S

$$

INZ028-029-035-036-043>045-051>053-280500-
WEST CENTRAL INDIANA

CITY           SKY/WX    TMP DP  RH WIND       PRES   REMARKS
CRAWFORDSVL +  PTCLDY    54  54 100 CALM      30.11R
GREENCASTLE +  CLEAR     55  52  88 CALM      30.11S
LAFAYETTE      CLEAR     57  51  80 CALM      30.09R
TERRE HAUTE    CLEAR     59  52  77 CALM      30.10R

$$

INZ030>032-037>040-046>048-054>057-064-065-280500-
CENTRAL INDIANA

CITY           SKY/WX    TMP DP  RH WIND       PRES   REMARKS
CP ATTERBURY + CLEAR     54  52  94 CALM      30.12S
FRANKFORT +    CLEAR     59  52  77 S3        30.12R
GREENWOOD *+   CLEAR     60  51  72 CALM      30.12R
INDIANAPOLIS   PTCLDY    62  47  57 S6        30.11R
-EAGLE CREEK   CLEAR     61  51  70 CALM      30.11R
KOKOMO +       CLEAR     59  51  75 S6        30.12R
MARION +         N/A     57  52  82 CALM      30.12R HAZE
MT COMFORT *+  CLEAR     59  52  77 SE3       30.12R
SHELBYVILLE    CLEAR     57  51  80 E5        30.11R
ZIONSVILLE +   CLEAR     56  53  90 SE5       30.13R

$$

INZ033-034-041-042-049-050-058-059-280500-
EAST CENTRAL INDIANA

CITY           SKY/WX    TMP DP  RH WIND       PRES   REMARKS
MUNCIE         CLEAR     62  48  60 S3        30.11R
RICHMOND +     CLEAR     52  50  93 S5        30.13S

$$

INZ060-061-067>069-081>083-085>088-280500-
SOUTHWEST INDIANA

CITY           SKY/WX    TMP DP  RH WIND       PRES   REMARKS
EVANSVILLE     CLEAR     63  55  75 CALM      30.10R
HUNTINGBURG *+ CLEAR     61  53  75 CALM      30.12R
WASHINGTON +   CLEAR     58  55  91 CALM      30.10S

$$

INZ062-063-066-070>080-084-089>092-280500-
SOUTH CENTRAL AND SOUTHEAST INDIANA

CITY           SKY/WX    TMP DP  RH WIND       PRES   REMARKS
BEDFORD +      CLEAR     57  50  77 CALM      30.11S
BLOOMINGTON    CLEAR     56  49  77 CALM      30.11S
MADISON *+     CLEAR     57  54  88 CALM      30.14S
NORTH VERNON + CLEAR     57  54  88 CALM      30.13R
SEYMOUR +      CLEAR     59  57  94 CALM      30.11S

$$





USA.gov is the U.S. government's official web portal to all federal, state and local government web resources and services.